This demonstration page uses our WeatherBlox Daily Observations layout. Learn more.

38.89511, -77.03637

Hourly Observations for April 21, 2017

Temp ( °F °C ) Dew Point ( °F °C ) Humidity (%) Winds ( mph kmh ) Pressure ( in mb ) Visibility ( mi km ) Precip ( " mm )
12:52 am 00:52 Mostly Clear 66 18.9 63 17.2 90 90 SE 5 7 29.91 1013 10 16.09344 0 0
1:52 am 01:52 Mostly Cloudy 65 18.3 64 17.8 97 97 S 5 7 29.88 1012 10 16.09344 0 0
2:52 am 02:52 Mostly Cloudy 65 18.3 63 17.2 93 93 S 8 13 29.85 1011 10 16.09344 0 0
3:29 am 03:29 Mostly Cloudy 65 18.3 64 17.8 97 97 SSW 3 6 29.88 1012 10 16.09344 0 0
3:52 am 03:52 Mostly Cloudy 65 18.3 63 17.2 93 93 Calm 29.85 1011 10 16.09344 0 0
4:52 am 04:52 Cloudy 64 17.8 63 17.2 96 96 SSW 5 7 29.85 1011 10 16.09344 0 0
5:22 am 05:22 Cloudy with Light Rain 64 18 63 17 94 94 Calm 29.88 1012 10 16.09344 0 0
5:52 am 05:52 Cloudy with Light Rain 65 18.3 63 17.2 93 93 Calm 29.85 1011 10 16.09344 0.01 0.254
6:52 am 06:52 Cloudy 65 18.3 64 17.8 97 97 ENE 7 11 29.88 1012 10 16.09344 0.001 0.001
7:14 am 07:14 Cloudy with Mist and Fog 64 18 64 18 100 100 ENE 8 13 29.88 1012 6 9.656064 0 0
7:52 am 07:52 Cloudy with Mist and Fog 65 18.3 64 17.8 97 97 NE 7 11 29.88 1012 6 9.656064 0 0
8:52 am 08:52 Mostly Cloudy with Mist and Fog 66 18.9 64 17.8 93 93 Calm 29.88 1012 6 9.656064 0.001 0.001
9:52 am 09:52 Mostly Cloudy 68 20 65 18.3 90 90 Calm 29.88 1012 7 11.265408 0 0
10:52 am 10:52 Partly Cloudy 72 22.2 66 18.9 82 82 NNE 6 9 29.88 1012 9 14.484096 0 0
11:52 am 11:52 Mostly Cloudy 73 22.8 66 18.9 79 79 NE 5 7 29.85 1011 10 16.09344 0 0
12:52 pm 12:52 Mostly Sunny 77 25 66 18.9 69 69 ENE 5 7 29.85 1011 10 16.09344 0 0
1:52 pm 13:52 Mostly Cloudy with Light Rain 75 23.9 68 20 79 79 E 6 9 29.83 1010 5 8.04672 0.01 0.254
2:52 pm 14:52 Partly Cloudy 77 25 69 20.6 77 77 NE 7 11 29.8 1009 10 16.09344 0.07 1.778
3:52 pm 15:52 Mostly Cloudy 81 27.2 69 20.6 67 67 E 5 7 29.77 1008 10 16.09344 0 0
4:52 pm 16:52 Partly Cloudy 79 26.1 68 20 69 69 ESE 10 17 29.77 1008 10 16.09344 0 0
5:52 pm 17:52 Mostly Cloudy 73 22.8 64 17.8 74 74 E 5 7 29.8 1009 10 16.09344 0 0
6:52 pm 18:52 Mostly Cloudy 72 22.2 65 18.3 79 79 Calm 29.8 1009 10 16.09344 0 0
7:25 pm 19:25 Partly Cloudy with Nearby Thunderstorms 73 22.8 64 17.8 74 74 Calm 29.8 1009 10 16.09344 0 0
7:42 pm 19:42 Mostly Cloudy with Nearby Thunderstorms 72 22 64 18 78 78 S 5 7 29.83 1010 10 16.09344 0 0
7:52 pm 19:52 Mostly Cloudy with Nearby Thunderstorms 72 22.2 65 18.3 79 79 S 9 15 29.8 1009 10 16.09344 0 0
7:58 pm 19:58 Cloudy 72 22 64 18 78 78 SSE 5 7 29.83 1010 10 16.09344 0 0
8:03 pm 20:03 Cloudy with Nearby Thunderstorms 72 22 64 18 78 78 SSE 7 11 29.83 1010 10 16.09344 0 0
8:18 pm 20:18 Mostly Cloudy 70 21 64 18 83 83 SSE 7 11 29.83 1010 10 16.09344 0 0
8:52 pm 20:52 Cloudy 72 22.2 65 18.3 79 79 S 6 9 29.8 1009 10 16.09344 0 0
9:52 pm 21:52 Mostly Cloudy 71 21.7 65 18.3 81 81 Calm 29.83 1010 10 16.09344 0 0
10:52 pm 22:52 Cloudy with Light Rain 68 20 66 18.9 93 93 NE 12 19 29.85 1011 8 12.874752 0.03 0.762
11:52 pm 23:52 Mostly Cloudy 65 18.3 62 16.7 90 90 NE 13 20 29.85 1011 10 16.09344 0.001 0.001

Powered by AerisWeather